Live-Position
3D-Globus wird geladen...
Über Starlink 4675
Group: 3 satellites
Beschreibung wird geladen...
Nächste Überflüge
Passes for default location (London). Set your location on the main map for personalized predictions.
Höhenverlauf
Loading altitude history...
No altitude history available
Zweizeiliger Elementsatz
1 53601U 22104P 26129.87403714 .00000614 00000-0 56678-4 0 9995
2 53601 53.2180 329.3067 0001048 84.4008 275.7104 15.08840050204859
Epoch: 9. Mai 2026 •
Age: 18 hours
Aktueller Status
Höhe 540.6 km
Geschwindigkeit 7.60 km/s
Subsatellitenpunkt 26.48°N,
29.1°E
Startdatum 28. Aug. 2022
Alter 3.6 years
Typ internet
Startgruppe
Falcon 9 •
Group 4-23 •
43 satellites
Starlink 4691
53588
Starlink 4673 53589
Starlink 4689 53590
Starlink 4674 53591
Starlink 4672 53592
Starlink 4681 53594
Starlink 4684 53595
Starlink 4676 53598
Starlink 4677 53600
Starlink 4648 53602
Starlink 4692 53603
Starlink 4690 53604
Starlink 4693 53605
Starlink 4590 53606
Starlink 4591 53607
Starlink 4647 53608
Starlink 4660 53609
Starlink 4610 53610
Starlink 4658 53612
Starlink 4655 53613
...and 22 more
Technische Details
Klassifizierung Payload
Masse 300.00 kg
Trockenmasse 290.00 kg
Gesamtmasse 300.00 kg
Länge 0.20 m
Durchmesser 2.80 m
Spannweite 9.00 m
Form Box + pan
Hersteller SPXS
Bus-Typ Starlink
Phasenstatus In Orbit
Besitzer/Staat SPXS/US
Most Searched
Loading...